Theta_e
311 310 309 309 308 307 307 305 303 301 298 298 298 299 302 303 302 298 301 301 300 304 303 302 305 306 306 306 308 309 308 309 310 312 313 313 313 313 312 314 313 314 317 320 321 320 320 315 316 319 318 317 315 314
311 311 310 310 308 307 307 307 306 302 300 298 298 299 300 303 302 298 299 301 300 300 301 300 301 302 303 304 306 308 308 308 309 311 312 311 314 312 313 316 313 316 315 320 316 318 316 316 317 315 315 316 315 315
311 311 311 310 309 308 307 306 306 303 300 298 298 299 300 303 303 299 298 299 300 301 302 304 306 305 304 304 304 307 308 308 308 309 310 312 312 312 315 315 314 313 312 315 315 314 315 315 314 312 312 313 313 313
310 311 311 311 310 309 308 307 306 303 301 299 298 299 300 301 302 300 297 298 301 300 302 307 304 303 304 304 304 304 306 306 307 307 310 310 312 311 313 314 312 312 313 315 315 313 312 311 311 313 313 311 313 312
309 310 310 310 310 310 309 307 306 303 301 299 299 299 299 301 301 299 297 297 300 300 305 305 304 304 305 305 305 305 305 305 305 306 307 310 310 312 311 312 313 311 312 312 312 309 309 310 311 311 311 312 309 309
309 309 309 309 310 310 308 307 306 304 301 299 299 299 299 301 299 297 299 299 299 299 302 306 305 307 306 305 306 306 305 305 304 307 307 309 309 312 314 314 312 310 309 307 306 305 306 309 310 311 310 308 308 309
308 309 309 309 309 309 308 306 305 303 301 300 300 300 299 300 298 298 301 299 299 299 302 304 308 307 306 306 307 309 305 303 303 306 308 309 311 311 310 314 310 308 305 304 306 309 310 310 312 308 306 307 306 304
308 309 309 309 309 308 307 306 305 302 301 300 300 299 300 298 297 297 297 297 299 300 302 305 307 308 306 308 310 309 307 305 305 307 309 311 310 309 311 310 307 303 302 305 306 305 309 311 308 305 306 303 303 302
308 308 308 309 308 307 307 306 304 301 300 299 299 299 297 296 297 299 298 297 299 301 304 304 307 313 308 308 308 311 309 309 306 308 312 311 311 314 310 306 303 302 302 303 305 310 311 308 305 306 304 302 302 301
308 308 308 307 307 306 306 305 302 301 300 299 298 298 300 299 298 299 298 299 299 300 301 305 307 308 307 307 307 311 312 313 314 313 309 311 313 309 305 302 300 302 303 306 309 312 311 306 305 305 302 300 300 299
307 306 306 306 306 305 305 303 301 299 298 298 298 300 298 299 301 302 305 303 302 305 304 305 306 307 307 306 306 310 313 313 314 314 313 315 315 308 304 302 302 302 303 304 309 310 309 305 305 304 303 301 300 299
306 306 306 306 305 305 304 301 299 298 297 298 297 296 298 299 301 304 303 306 307 307 307 307 307 306 306 306 307 310 312 312 317 314 314 319 309 306 302 302 302 302 302 306 308 310 308 304 304 303 302 301 300 298
305 305 305 305 305 304 302 300 298 298 297 296 298 300 303 303 303 301 306 308 309 307 308 307 306 305 306 307 309 311 313 314 313 315 316 310 307 305 303 301 301 300 302 306 309 308 307 305 304 303 303 301 300 298
305 305 305 304 304 302 301 298 298 297 298 300 301 303 303 304 304 305 306 308 308 306 307 306 308 305 306 308 309 311 311 311 313 315 312 308 306 304 302 301 300 300 301 305 308 307 307 307 304 303 302 302 301 300
304 304 304 304 303 301 299 297 298 297 299 302 303 306 304 305 306 307 307 306 305 305 305 305 306 306 308 309 309 310 310 311 310 311 307 305 304 303 301 300 300 300 302 304 305 307 307 308 304 303 302 302 301 300
304 304 304 303 301 299 297 296 296 296 298 301 303 306 305 305 307 307 305 305 304 305 305 306 308 309 309 308 308 309 309 309 308 305 303 303 302 303 302 300 300 300 300 302 304 304 305 307 306 303 302 301 301 299
304 302 302 301 299 297 296 295 295 298 301 303 303 303 304 305 307 306 305 306 305 305 307 307 309 308 307 306 306 305 307 306 303 302 301 302 302 302 302 302 302 301 301 301 301 302 304 305 306 304 304 302 301 300
302 302 300 299 297 295 294 295 298 299 302 301 302 303 303 305 305 305 305 306 305 305 305 306 307 307 309 308 307 305 304 304 303 301 300 300 301 301 302 302 301 301 301 299 299 299 302 304 306 306 305 302 301 300
301 299 298 297 295 296 298 297 298 302 301 300 302 303 303 304 305 305 306 306 305 305 305 304 305 307 309 306 305 303 304 304 303 301 301 301 300 300 301 301 301 301 303 299 297 297 297 302 303 303 304 305 302 299
298 297 296 295 297 298 300 300 299 302 302 302 302 303 303 305 306 306 305 305 305 305 304 304 306 307 306 304 304 304 303 302 302 301 302 302 301 301 301 301 301 301 301 300 298 296 297 297 299 301 303 304 304 300
296 295 295 297 297 299 301 300 301 303 303 304 303 302 304 305 306 305 305 304 304 304 305 305 305 303 302 302 301 301 301 301 300 300 300 302 301 300 299 299 300 301 300 298 296 296 295 295 295 298 301 304 304 298
293 294 295 296 298 299 301 301 303 303 303 304 304 305 305 306 306 305 305 304 304 305 304 303 303 303 302 302 300 300 299 300 299 298 297 299 301 299 299 298 298 299 298 296 295 295 295 294 294 295 298 300 304 298
295 296 297 298 301 302 303 302 303 303 305 305 305 305 305 305 305 304 304 305 305 303 303 302 301 301 301 299 299 299 299 299 300 300 299 299 298 297 297 297 296 296 297 296 296 296 296 296 295 294 295 298 302 300
297 299 301 301 302 304 302 303 304 303 304 306 306 305 305 305 304 304 303 305 304 303 303 302 301 302 300 299 300 300 298 300 300 298 297 297 298 297 296 296 295 294 295 296 296 296 297 296 297 296 294 295 297 301
301 300 301 302 302 302 303 303 304 304 305 306 305 306 306 305 305 304 304 305 304 303 303 302 302 301 301 301 301 298 296 299 299 298 296 296 296 297 297 296 295 293 293 294 295 295 296 296 296 297 295 294 293 297
302 300 302 301 302 302 303 305 305 305 304 304 305 305 304 305 304 304 305 306 305 303 303 302 302 301 301 301 299 297 296 297 297 297 295 294 294 295 296 296 296 293 292 292 293 294 294 295 296 296 296 296 293 293
301 301 300 301 301 302 303 304 304 305 304 304 306 305 305 305 304 307 306 305 304 302 301 301 300 301 300 299 296 295 295 296 296 295 293 293 292 292 292 293 292 290 291 291 291 292 292 293 294 295 296 296 295 291
300 299 302 301 302 302 304 304 304 304 304 303 304 305 304 304 307 303 303 302 302 301 300 300 299 299 297 296 295 294 294 294 293 292 292 292 291 291 291 291 290 289 290 290 290 291 290 292 292 294 295 296 295 293
300 300 301 302 302 302 302 303 303 302 302 303 304 305 305 299 298 299 301 300 300 299 299 299 297 295 294 294 294 294 294 294 295 295 296 295 294 292 290 290 290 290 290 291 290 290 289 290 291 292 293 294 294 294
300 300 301 301 301 301 301 302 304 302 302 303 302 299 298 297 297 299 299 299 299 299 298 296 295 294 294 294 293 293 293 293 293 294 295 293 291 290 289 289 289 289 290 290 291 291 290 292 292 292 292 292 292 292
299 299 301 301 302 302 301 301 301 300 301 301 302 301 298 296 296 296 297 297 297 296 295 295 295 294 294 294 293 293 292 290 289 288 289 289 289 288 288 288 288 288 289 289 289 290 289 290 290 290 290 289 288 288
299 300 300 300 302 300 300 301 301 301 300 300 300 299 298 297 297 296 293 295 296 296 295 295 295 295 294 293 293 291 290 289 288 287 286 286 286 286 286 287 287 287 288 288 288 288 288 288 288 288 288 287 286 286
299 299 299 300 300 301 301 301 301 300 299 299 298 297 297 297 295 293 290 292 294 295 294 294 294 293 292 291 290 288 287 284 281 281 280 280 280 281 283 284 285 286 287 287 287 287 286 286 285 285 285 284 284 284
Wind_Speed
22 22 22 23 25 30 31 33 30 26 23 22 19 15 13 14 12 6 7 6 7 6 13 16 11 12 9 6 6 6 5 4 4 3 2 2 5 4 6 8 10 9 5 4 5 5 6 9 14 9 12 20 20 21
22 22 21 21 21 25 31 34 33 27 26 23 19 18 15 17 13 7 5 6 6 8 8 23 25 22 17 12 7 2 4 4 4 3 3 3 3 4 9 5 4 3 2 4 5 7 19 14 15 18 17 20 20 19
24 22 21 21 20 21 26 33 35 29 27 24 20 20 17 16 15 12 10 9 6 4 8 10 6 8 8 11 9 3 3 5 3 5 4 3 4 2 4 4 8 8 11 8 11 6 15 16 22 14 19 20 20 20
25 24 24 23 21 21 23 28 34 29 28 24 21 21 19 18 17 13 12 9 9 6 4 1 2 6 7 9 11 13 9 6 9 6 4 3 3 3 4 8 10 8 10 11 16 16 24 8 19 22 22 20 25 25
25 24 21 20 21 22 22 25 33 31 29 23 20 20 19 14 15 11 12 15 13 5 4 8 22 16 13 11 11 11 11 6 4 3 3 4 4 4 5 6 3 4 2 3 5 19 15 18 23 25 27 24 24 25
25 22 20 21 23 22 22 22 32 32 28 21 19 19 13 17 15 5 2 10 17 13 3 4 7 7 11 10 9 9 8 3 1 3 4 4 5 2 3 3 5 7 13 11 5 15 20 22 19 21 23 25 27 24
24 21 21 22 23 22 20 20 30 32 26 17 19 16 15 17 17 5 2 1 11 14 2 4 4 8 13 10 5 5 7 2 3 3 4 6 2 3 1 2 12 17 16 17 17 14 17 19 22 24 23 23 22 20
23 22 23 23 23 21 19 18 29 30 20 16 13 10 11 15 9 6 16 9 14 4 4 3 5 5 13 6 6 5 5 3 4 3 3 3 2 2 3 5 17 15 16 14 14 18 20 23 22 25 21 20 17 15
22 23 23 22 20 19 18 17 29 25 18 13 9 15 8 3 5 4 9 19 16 3 2 3 3 2 5 8 2 6 5 4 3 3 4 2 2 2 8 12 13 13 11 17 21 19 20 20 21 23 22 20 16 14
21 21 19 18 18 17 16 21 28 22 18 21 12 4 2 6 7 17 6 4 3 3 3 5 8 6 3 2 3 6 5 4 4 4 3 2 2 5 10 9 11 13 15 17 16 19 21 20 19 20 21 17 16 16
19 19 18 17 16 15 15 31 29 24 24 6 4 2 2 6 12 2 3 4 4 4 4 6 10 6 4 5 5 6 3 3 3 2 2 3 3 7 11 10 11 12 14 16 17 20 18 21 18 17 22 18 15 15
17 17 17 15 14 15 28 35 34 24 12 11 9 6 4 1 2 3 4 4 5 4 6 7 7 5 2 0 2 2 3 3 2 4 3 2 4 10 11 14 15 15 16 17 18 18 21 20 16 14 17 17 15 20
16 15 15 14 14 24 37 38 33 23 23 10 3 4 3 3 4 5 6 4 4 4 5 6 5 3 4 4 4 4 4 3 3 3 2 3 8 10 11 12 14 15 18 15 17 20 23 21 22 19 16 23 24 20
15 15 14 13 23 35 41 40 32 27 6 3 5 6 5 6 5 6 8 5 4 4 7 6 6 4 3 4 2 4 2 2 2 3 3 5 8 9 11 12 12 14 15 16 16 16 17 18 19 18 22 25 25 17
13 12 13 19 36 41 42 37 30 16 4 3 4 5 8 6 6 9 7 4 4 4 4 3 2 3 2 1 3 3 2 3 1 3 2 4 7 9 11 12 11 11 13 14 15 14 17 23 18 20 22 23 28 25
9 7 16 34 42 43 40 30 16 3 2 2 4 3 4 5 7 6 5 5 5 5 3 2 3 2 1 1 2 3 2 2 2 1 3 5 7 8 9 10 10 14 15 15 18 20 20 23 17 20 25 28 23 29
15 4 28 43 44 41 31 10 4 4 3 3 4 7 5 7 7 7 6 6 5 5 5 2 5 3 2 2 2 1 1 2 1 2 2 5 7 8 9 9 11 15 16 17 18 19 19 23 23 22 18 24 23 30
6 35 48 49 44 27 5 2 3 4 5 5 4 6 7 6 6 5 3 5 4 3 1 2 2 4 3 2 2 3 2 5 5 2 2 4 6 8 8 9 14 15 14 18 20 20 19 20 16 15 25 26 24 24
42 52 53 45 26 7 3 4 3 3 6 4 5 4 7 6 4 5 4 3 2 2 1 2 2 2 3 2 3 4 4 2 3 2 3 3 4 7 8 10 10 13 12 15 18 17 19 21 19 20 23 23 17 24
52 52 42 29 15 4 3 3 5 3 4 4 5 7 7 8 6 5 4 4 4 3 3 3 1 3 2 4 5 3 4 2 2 2 3 3 3 5 7 9 10 10 13 15 16 20 20 20 21 23 25 25 20 20
36 28 25 14 2 0 2 4 4 3 3 4 7 7 5 4 6 5 4 4 4 3 2 2 3 4 5 6 6 2 5 4 4 1 2 4 6 8 8 11 12 11 11 13 13 16 19 17 21 22 23 22 22 23
13 14 6 4 1 2 2 4 3 3 3 2 6 6 6 8 7 5 5 4 2 2 1 3 5 6 6 5 5 2 6 6 5 0 8 5 4 6 7 11 12 10 12 13 15 15 16 19 21 22 21 23 22 20
16 7 3 3 2 3 2 7 4 5 4 5 6 4 5 6 4 6 4 4 2 3 6 7 8 7 7 8 7 6 5 7 4 1 4 5 7 8 9 10 13 13 11 14 13 15 16 17 19 21 21 20 22 19
8 4 4 5 4 3 5 5 3 3 3 4 5 4 6 4 5 4 5 6 5 6 7 10 10 7 6 7 6 7 6 6 4 7 5 5 5 7 8 9 12 14 14 14 15 17 17 18 20 20 21 21 21 20
3 4 3 3 4 4 5 5 4 4 4 5 7 4 4 4 5 5 6 5 7 7 8 9 7 7 6 6 6 8 3 3 4 5 6 6 6 6 7 8 11 14 15 16 16 17 18 19 19 19 17 19 22 20
3 4 5 6 4 4 4 4 7 8 5 7 6 4 4 4 5 4 5 7 7 8 9 9 8 7 7 8 6 6 7 4 5 7 6 7 8 8 7 6 7 12 15 16 17 17 18 18 18 19 19 18 20 19
3 4 3 1 1 1 2 2 3 4 5 6 5 6 5 4 5 3 2 4 5 11 14 13 12 9 8 10 10 8 7 5 5 8 6 6 8 8 9 9 11 11 10 14 16 17 19 17 18 18 17 17 16 16
1 2 4 5 3 4 3 5 5 6 4 2 5 7 4 3 3 2 0 5 10 14 14 12 10 12 12 11 10 9 8 9 8 6 7 7 7 8 8 8 8 10 9 10 14 16 18 15 17 16 18 17 17 16
3 3 3 5 4 5 3 3 3 2 1 3 5 2 3 3 2 2 7 12 14 15 14 14 14 14 13 10 8 8 9 8 6 5 4 4 4 7 7 8 8 9 10 11 9 13 17 14 15 15 17 15 15 14
3 4 3 4 3 4 2 1 2 3 3 4 5 6 6 4 4 5 11 13 13 12 13 14 15 14 12 12 10 9 7 6 5 3 4 5 5 5 6 7 8 9 10 11 12 13 16 15 15 16 17 17 18 16
2 4 2 3 2 1 2 4 4 4 4 4 4 8 6 4 7 8 6 9 11 13 13 13 13 12 11 11 11 10 9 9 9 8 7 6 6 6 7 7 8 9 10 10 11 13 16 15 16 17 18 19 19 18
3 4 2 3 3 2 2 3 2 2 2 2 2 5 7 5 3 2 8 4 9 11 10 11 11 11 11 10 10 12 14 10 9 8 8 7 7 7 7 8 8 9 10 10 11 12 14 15 15 16 16 18 19 19
2 2 3 2 3 4 4 4 3 3 2 2 3 3 4 3 4 3 5 12 7 8 11 10 12 12 13 13 13 13 13 11 11 11 10 10 10 10 9 8 8 9 9 10 11 12 13 14 15 16 16 16 17 18
Wind_Direction
286 281 278 276 273 269 254 250 255 256 251 255 256 249 261 274 269 255 265 249 254 277 287 282 281 286 283 247 280 19 263 202 255 267 291 307 293 317 285 321 297 289 271 232 250 243 268 17 338 329 318 308 312 306
283 279 275 276 273 269 265 256 255 248 245 252 252 248 241 261 256 227 267 232 245 257 285 306 279 267 263 272 301 276 327 284 330 329 342 328 311 294 319 295 289 294 332 296 290 292 306 338 322 319 305 298 301 301
279 275 274 275 273 267 264 262 255 246 241 245 246 248 237 262 242 219 231 271 274 271 282 243 241 205 217 225 230 271 322 4 24 320 334 294 274 259 290 292 315 324 317 287 310 302 324 319 311 319 314 304 299 295
278 273 274 271 269 270 266 262 256 242 237 241 244 248 239 263 225 218 217 243 251 293 283 293 174 219 214 203 209 223 270 319 322 319 276 264 269 289 287 307 306 305 315 345 296 297 338 309 316 305 312 313 295 297
278 272 269 271 275 274 270 263 250 237 236 238 243 245 239 266 216 203 227 233 238 250 305 306 302 246 237 210 215 223 237 255 289 262 261 255 280 296 274 280 274 23 350 312 280 304 298 290 301 309 302 301 294 306
275 269 269 272 276 276 271 262 245 236 234 234 235 238 262 250 181 152 268 220 216 214 275 288 1 201 190 196 216 223 223 218 211 273 252 264 272 289 295 276 105 303 340 335 285 287 284 283 290 302 315 319 324 323
271 265 269 275 278 275 270 259 241 231 225 227 226 238 245 213 178 163 242 38 181 188 252 276 250 179 194 211 178 185 140 153 212 252 249 266 281 179 259 271 338 342 330 314 303 313 311 306 311 322 329 330 321 310
267 264 270 274 272 269 263 251 234 220 211 210 229 250 200 175 196 237 220 176 179 211 249 268 276 219 180 222 177 166 159 186 210 257 263 259 140 210 245 302 338 334 323 308 318 304 292 298 342 333 330 324 316 316
266 272 273 271 269 265 254 239 218 198 188 196 209 170 141 180 206 236 197 192 197 268 254 243 253 197 193 236 187 176 176 197 185 223 218 142 166 232 355 341 325 324 309 294 296 302 311 347 328 330 340 331 323 321
268 270 271 270 267 262 243 222 189 175 170 160 138 158 204 207 180 122 117 149 205 219 231 249 252 268 230 240 253 182 191 198 202 193 114 209 164 109 22 345 319 308 308 311 316 325 328 345 346 346 336 328 324 321
271 270 270 269 262 245 225 190 170 156 151 152 163 193 207 152 175 231 180 198 184 218 218 237 240 253 188 266 282 16 338 277 248 137 228 185 165 18 1 334 322 325 323 320 313 314 341 354 349 352 336 337 326 330
271 270 265 259 245 220 194 171 160 154 160 160 142 119 134 180 188 210 212 200 202 239 173 215 197 216 76 356 245 187 248 240 269 147 195 190 51 10 350 337 339 340 334 324 324 337 344 354 1 0 341 341 339 334
270 267 261 246 218 194 175 164 161 157 136 115 153 163 193 160 196 214 204 209 196 200 178 197 173 203 150 209 221 220 231 231 230 195 93 56 34 2 350 343 339 336 333 332 336 345 340 350 8 11 349 348 345 347
264 259 247 218 193 175 167 162 161 150 122 167 165 174 218 180 225 202 241 256 134 173 167 185 160 203 144 205 257 253 256 314 282 193 95 31 12 355 348 347 341 336 333 333 335 338 342 346 359 11 0 353 350 351
258 244 213 193 176 167 160 157 161 154 161 175 196 209 210 233 238 230 219 119 139 147 151 160 162 156 139 264 292 300 246 221 253 53 46 5 357 359 350 347 341 334 334 330 332 343 334 339 6 360 357 357 358 355
228 202 171 172 164 159 152 142 142 113 197 234 229 233 235 216 236 233 192 148 168 171 164 236 136 127 172 264 243 227 245 228 80 30 336 349 347 351 353 346 336 332 337 331 336 344 340 335 359 5 360 358 8 360
185 153 167 159 154 148 145 119 129 192 216 217 222 226 255 228 217 198 201 150 163 192 210 150 180 173 128 213 246 229 289 84 165 53 4 342 338 345 345 345 342 345 349 347 340 345 341 345 351 2 6 358 359 3
140 153 152 146 140 134 95 120 171 187 212 225 223 203 217 253 243 167 126 124 202 213 174 224 96 186 185 234 202 170 155 211 102 42 8 323 328 334 350 343 344 343 356 355 351 348 344 348 359 355 354 5 358 3
145 145 151 147 139 113 137 169 217 216 220 191 207 218 205 224 263 171 140 125 309 357 110 208 236 257 173 113 114 161 197 43 86 74 254 130 337 339 339 334 338 337 355 9 357 353 345 345 356 351 348 349 1 6
146 147 144 144 140 116 137 143 198 244 200 197 210 197 202 207 180 159 163 180 191 199 193 212 294 46 88 139 175 87 84 114 72 50 24 22 1 331 11 356 352 343 6 0 1 360 357 357 356 353 348 350 0 7
121 128 133 137 102 181 175 164 197 215 191 186 202 185 193 174 178 181 174 178 208 233 142 179 129 108 136 147 126 147 97 38 72 81 338 10 1 22 14 15 5 18 24 7 359 357 360 356 347 346 345 352 358 17
121 120 100 69 107 204 216 205 230 173 180 197 171 191 192 193 190 189 127 206 227 120 137 153 153 153 149 140 132 70 92 96 74 30 233 258 20 27 26 24 15 15 23 19 359 353 353 353 352 352 354 346 355 24
119 88 99 148 166 202 228 172 192 182 173 183 185 200 195 183 161 122 204 189 154 162 156 153 153 175 126 137 135 135 122 129 137 71 49 33 55 37 35 36 27 16 13 17 8 1 358 357 358 1 357 359 356 22
96 131 172 178 203 181 172 191 196 193 195 181 186 196 179 156 139 220 226 171 150 165 162 144 168 146 157 161 175 148 139 130 146 88 40 22 39 48 40 45 39 24 10 9 8 3 6 9 6 9 5 3 1 360
155 158 181 188 212 166 178 166 186 196 189 187 189 169 151 156 189 218 225 156 157 179 159 176 177 171 165 169 133 122 174 178 110 95 56 40 17 37 39 45 59 31 10 7 8 8 6 5 10 11 16 11 4 356
170 168 202 196 167 178 178 174 190 193 176 186 201 152 143 189 207 215 215 167 167 181 172 179 178 176 162 146 143 141 139 127 124 102 71 51 40 27 26 28 22 28 10 7 0 1 6 6 7 9 9 15 9 6
168 193 185 189 156 170 169 210 177 188 191 192 162 170 186 186 216 104 147 133 177 166 169 176 174 165 148 134 108 121 125 113 70 89 94 74 61 46 36 30 29 8 2 8 3 1 360 2 5 6 7 9 16 7
265 197 182 167 179 209 204 192 195 192 203 195 161 196 208 200 89 70 33 157 158 152 156 149 148 138 133 140 142 141 131 121 126 128 125 106 81 55 41 35 27 18 9 12 9 6 1 0 4 5 5 7 4 3
201 183 175 184 202 208 229 214 211 187 345 197 187 168 102 66 31 165 165 149 151 146 147 141 133 132 133 137 134 138 144 158 152 128 117 81 64 50 32 28 22 20 15 9 8 18 9 356 360 3 3 7 7 3
159 179 207 201 205 212 200 44 80 71 56 69 106 104 85 92 125 158 143 150 153 152 143 141 148 156 151 145 130 116 97 85 71 75 107 92 75 48 35 27 21 17 13 10 8 9 9 7 8 8 10 9 10 5
142 189 236 223 236 119 148 121 123 77 40 50 51 112 123 109 57 43 126 148 151 147 151 157 160 156 154 146 145 142 116 97 89 81 74 77 62 48 32 23 18 12 9 10 12 14 10 10 10 4 3 3 2 360
200 210 228 226 171 214 198 159 126 84 102 123 107 132 139 128 107 79 7 334 160 157 156 163 154 152 146 142 108 91 109 112 92 76 62 55 48 32 24 19 15 11 8 12 15 16 14 14 11 7 3 359 354 351
157 175 210 201 179 189 200 181 141 113 108 81 51 56 58 66 78 48 5 16 355 159 164 149 139 129 115 112 113 105 100 103 95 82 74 67 61 54 38 24 16 11 11 18 17 16 17 16 15 10 5 2 356 352